Flag for Argentina Weather past 2 weeks in Buenos Aires, Argentina

Now
75 °F

Sunny.


Feels Like: 76 °F
Forecast: 69 / 86 °F
Wind: 6 mph from East

Location: Buenos Aires Airport

Current Time: Dec 18, 2014 at 10:11:34 AM

Latest Report: Dec 18, 2014 at 9:00 AM


Visibility: 10 mi

Pressure: 29.92 "Hg

Humidity: 78%

Dew point: 68 °F

Location of Buenos AiresLocation

Historic Weather in Buenos Aires — Graph

°F

Buenos Aires temperature yesterday

Maximum temperature yesterday: 88 °F (at 2:00 PM)
Minimum temperature yesterday: 72 °F (at 5:00 AM)
Average temperature yesterday: 79 °F

Past Weeks' High & Low Weather Summary

 TemperatureHumidityPressure
High88 °F (Dec 6, 4:00 PM)94% (Dec 7, 4:00 PM)30.12 "Hg (Dec 7, 4:00 PM)
Low61 °F (Dec 11, 5:00 AM)35% (Dec 13, 1:00 PM)29.53 "Hg (Dec 9, 6:00 PM)
Average74 °F68%29.91 "Hg
* Reported Dec 3 9:00 AM — Dec 18 9:00 AM, Buenos Aires, Weather by CustomWeather, © 2014

Note: Actual official high and low records may vary slightly from our data, if they occured in-between our weather recording intervals... More about our weather records

Advertising

Buenos Aires weather history for previous 24 hours

 ConditionsComfort  
Time TempWeatherWind HumidityBarometerVisibility
9:00 AM
Dec 18
75 °FSunny.6 mph78%29.92 "Hg10 mi
8:00 AM75 °FSunny.5 mph74%29.92 "Hg10 mi
7:00 AM72 °FSunny.3 mph78%29.89 "Hg10 mi
6:00 AM70 °FSunny.No wind78%29.89 "Hg10 mi
5:00 AM70 °FSunny.No wind78%29.86 "Hg10 mi
4:00 AM70 °FClear.5 mph78%29.86 "Hg10 mi
3:00 AM70 °FClear.No wind83%29.86 "Hg10 mi
2:00 AM73 °FClear.No wind69%29.89 "Hg10 mi
1:00 AM73 °FClear.5 mph69%29.89 "Hg10 mi
12:00 AM72 °FClear.7 mph78%29.89 "Hg10 mi
11:00 PM
Dec 17
72 °FClear.13 mph73%29.92 "Hg10 mi
10:00 PM73 °FPassing clouds.20 mph61%29.89 "HgN/A
9:00 PM75 °FThunderstorms. Passing clouds.10 mph57%29.86 "HgN/A
8:00 PM79 °FScattered showers. Passing clouds.24 mph48%29.86 "Hg3 mi
7:48 PM86 °FPassing clouds.25 mph40%29.86 "Hg3 mi
7:00 PM86 °FPassing clouds.9 mph40%29.83 "HgN/A
6:00 PM86 °FScattered clouds.9 mph43%29.80 "HgN/A
5:00 PM88 °FScattered clouds.12 mph43%29.80 "HgN/A
4:00 PM88 °FScattered clouds.14 mph46%29.83 "HgN/A
3:00 PM88 °FScattered clouds.14 mph43%29.83 "HgN/A
2:00 PM88 °FPassing clouds.10 mph46%29.86 "HgN/A
1:00 PM86 °FPassing clouds.8 mph49%29.86 "HgN/A
12:00 PM86 °FPassing clouds.12 mph52%29.86 "HgN/A
11:00 AM79 °FScattered clouds.6 mph74%29.89 "HgN/A
10:00 AM77 °FPassing clouds.7 mph74%29.89 "HgN/A
Weather by CustomWeather, © 2014

See weather overviewHow to use our weather pages